Richmond, VA

6:00 AM EST on December 16, 2019 (GMT -0500)
Richmond International

Weather History for KRIC - October, 2019

Change the Weather History Date:

Friday, October 4, 2019

  Actual Average Record
Temperature  
Mean Temperature 71 °F 64 °F  
Max Temperature 82 °F 75 °F 94 °F (1954)
Min Temperature 59 °F 53 °F 28 °F (1974)
Degree Days  
Heating Degree Days 0 4  
Month to date heating degree days 0 13  
Since 1 July heating degree days 0 42  
Cooling Degree Days 6 2  
Month to date cooling degree days 57 10  
Year to date cooling degree days 2027 1514  
Growing Degree Days 21 (Base 50)    
Moisture  
Dew Point 63 °F    
Average Humidity 75    
Maximum Humidity 100    
Minimum Humidity 36    
Precipitation  
Precipitation 0.00 in 0.10 in 2.04 in (1964)
Month to date precipitation 0.00 0.39  
Year to date precipitation 33.15 34.51  
Snow  
Snow 0.00 in 0.00 in 0.00 in (2002)
Month to date snowfall 0.0 0.0  
Since 1 July snowfall 0.0 0.0  
Snow Depth 0.00 in    
Sea Level Pressure  
Sea Level Pressure 30.03 in    
Wind  
Wind Speed 6 mph ()    
Max Wind Speed 22 mph    
Max Gust Speed 27 mph    
Visibility 7.0 miles    
Events Fog    
T = Trace of Precipitation, MM = Missing Value Source: Averaged Metar Reports

Daily Weather History Graph

Daily Weather History Graph

Search for Another Location

Airport or City:

Astronomy

Oct. 04, 2019 Rise Set
Actual Time 7:07 AM EDT 6:48 PM EDT
Civil Twilight 6:41 AM EDT 7:14 PM EDT
Nautical Twilight 6:10 AM EDT 7:44 PM EDT
Astronomical Twilight 5:40 AM EDT 8:14 PM EDT
Moon 1:30 PM EDT (10/4) 11:22 PM EDT (10/4)
Length of Visible Light 12h 33m
Length of Day
11h 41m
Waxing Crescent, 39% of the Moon is Illuminated
Oct 4
Waxing Crescent
Oct 5
First Quarter
Oct 13
Full
Oct 21
Last Quarter
Oct 27
New

Hourly Weather History & Observations

Time (EDT) Temp. Heat Index Dew Point Humidity Pressure Visibility Wind Dir Wind Speed Gust Speed Precip Events Conditions
12:17 AM 73.0 °F - 72.0 °F 96% 29.94 in 7.0 mi Calm Calm - N/A   Mostly Cloudy
12:54 AM 72.0 °F - 71.1 °F 97% 29.95 in 7.0 mi ESE 3.5 mph - N/A   Overcast
1:21 AM 72.0 °F - 71.1 °F 97% 29.92 in 6.0 mi SE 5.8 mph - N/A   Mostly Cloudy
1:54 AM 72.0 °F - 71.1 °F 97% 29.93 in 5.0 mi SE 4.6 mph - N/A   Scattered Clouds
2:30 AM 71.1 °F - 70.0 °F 96% 29.91 in 5.0 mi Calm Calm - N/A   Overcast
2:54 AM 72.0 °F - 70.0 °F 93% 29.92 in 4.0 mi Calm Calm - N/A   Mostly Cloudy
3:26 AM 71.1 °F - 70.0 °F 96% 29.91 in 2.0 mi SSW 3.5 mph - N/A   Mostly Cloudy
3:36 AM 71.1 °F - 70.0 °F 96% 29.91 in 0.2 mi Calm Calm - N/A Fog Fog
3:54 AM 71.1 °F - 70.0 °F 96% 29.92 in 0.5 mi Calm Calm - N/A Fog Fog
4:54 AM 71.1 °F - 70.0 °F 96% 29.93 in 0.2 mi Calm Calm - N/A Fog Fog
5:19 AM 70.0 °F - 70.0 °F 100% 29.94 in 0.5 mi North 9.2 mph - N/A Fog Fog
5:30 AM 71.1 °F - 71.1 °F 100% 29.95 in 3.0 mi North 11.5 mph - N/A   Overcast
5:54 AM 71.1 °F - 71.1 °F 100% 29.96 in 3.0 mi North 8.1 mph - N/A   Overcast
6:54 AM 72.0 °F - 71.1 °F 97% 29.99 in 6.0 mi North 9.2 mph - N/A   Mostly Cloudy
7:12 AM 72.0 °F - 71.1 °F 97% 29.99 in 5.0 mi North 8.1 mph - N/A   Mostly Cloudy
7:32 AM 72.0 °F - 71.1 °F 97% 30.00 in 5.0 mi North 8.1 mph - N/A   Mostly Cloudy
7:54 AM 73.0 °F - 71.1 °F 93% 30.02 in 6.0 mi North 9.2 mph - N/A   Mostly Cloudy
8:07 AM 73.0 °F - 70.0 °F 90% 30.01 in 6.0 mi NNE 10.4 mph - N/A   Mostly Cloudy
8:42 AM 73.9 °F - 70.0 °F 87% 30.03 in 10.0 mi NNE 12.7 mph - N/A   Mostly Cloudy
8:54 AM 73.9 °F - 69.1 °F 85% 30.05 in 10.0 mi NNE 11.5 mph - N/A   Mostly Cloudy
9:54 AM 77.0 °F - 63.0 °F 62% 30.07 in 10.0 mi NNE 15.0 mph 24.2 mph N/A   Mostly Cloudy
10:09 AM 78.1 °F - 61.0 °F 56% 30.06 in 10.0 mi NNE 21.9 mph - N/A   Scattered Clouds
10:54 AM 79.0 °F - 60.1 °F 52% 30.08 in 10.0 mi NNE 12.7 mph - N/A   Partly Cloudy
11:54 AM 80.1 °F 80.7 °F 59.0 °F 48% 30.09 in 10.0 mi North 17.3 mph 25.3 mph N/A   Partly Cloudy
12:54 PM 82.0 °F 82.0 °F 57.9 °F 44% 30.09 in 10.0 mi North 15.0 mph - N/A   Scattered Clouds
1:54 PM 81.0 °F 80.8 °F 55.9 °F 42% 30.08 in 10.0 mi North 13.8 mph 20.7 mph N/A   Scattered Clouds
2:54 PM 82.0 °F 81.4 °F 55.0 °F 39% 30.08 in 10.0 mi North 18.4 mph 21.9 mph N/A   Partly Cloudy
3:54 PM 81.0 °F - 52.0 °F 36% 30.09 in 10.0 mi NNE 11.5 mph - N/A   Partly Cloudy
4:54 PM 80.1 °F - 51.1 °F 36% 30.09 in 10.0 mi NNE 16.1 mph - N/A   Partly Cloudy
5:54 PM 77.0 °F - 51.1 °F 40% 30.12 in 10.0 mi NNE 12.7 mph - N/A   Partly Cloudy
6:54 PM 73.0 °F - 46.9 °F 39% 30.14 in 10.0 mi NNE 9.2 mph - N/A   Partly Cloudy
7:54 PM 69.1 °F - 48.0 °F 47% 30.16 in 10.0 mi NNE 8.1 mph - N/A   Partly Cloudy
8:54 PM 66.9 °F - 51.1 °F 57% 30.19 in 10.0 mi ENE 6.9 mph - N/A   Clear
9:54 PM 64.9 °F - 52.0 °F 63% 30.21 in 10.0 mi NE 9.2 mph - N/A   Partly Cloudy
10:54 PM 64.0 °F - 52.0 °F 65% 30.25 in 10.0 mi NE 11.5 mph - N/A   Clear
11:54 PM 62.1 °F - 48.0 °F 60% 30.27 in 10.0 mi NE 12.7 mph - N/A   Clear